DECAYED

STARLINK-1444, 45661 (Decayed)

Orbit data source: Space-Track

STARLINK-1444, 45661 was a payload satellite owned by SpaceX/Seattle (US) in LEO that was launched on Thu, 04 Jun 2020 UTC via an FALCON 9 launch vehicle from the Air Force Eastern Test Range (AFETR). Payload-class satellites include a variety of spacecraft equipped with specific instruments for various scientific and technological missions. These include communications satellites like Starlink; space stations such as the ISS; scientific satellites like the Hubble; Earth observation satellites from companies like Planet Labs, Umbra, and HawkEye 360; GPS; miniature CubeSats for education and research; and military/defense satellites.

Not visible in the next 10 days
Identifier
45661, 2020-035E
Orbit
Decayed
Country
Flag of USUS
Related business
Manufacturer
SpaceX/Seattle
Mission
Decayed Commercial Communications
Bus & Motor
STARLINK, Unknown motor
Mass
260 kg wet, ~248 kg dry
Launch date (UTC)
2020-06-04 (5 years ago)
Launch vehicle
FALCON 9
Launch site
Air Force Eastern Test Range (AFETR)
Object type
Payload
Rocket body
Debris
Shape & HBR
Box + 1 Pan, 10.1 m
Radar Cross Section
13.562 m², Large (>1 m²)

Expand to show TLE details & history
Last TLE update: 6 months ago

TLE from 6 months ago
0 STARLINK-1444
1 45661U 20035E   25109.11601714  .12634174  12369-4  70862-3 0  9999
2 45661  53.0279 344.5949 0010154 257.2635 241.7570 16.41588247270785
Epoch: 2025-04-19T02:47Z
TLE epoch observation values (Epoch: 2025-04-19T02:47:03.880Z)
Latitude
31.7739°
Longitude
-112.25419°
Altitude
166.708 km
Speed
7.809 km/s
True Right ascension
09h 07m 54s
True Declination
31° 36' 23"
Sunlit
Object was in daylight at epoch
Visualization orbit readout
Latitude
Unknown
Longitude
Unknown
Altitude
Unknown
Speed
Unknown
Apparent Right ascension
Unknown
Apparent Declination
Unknown
Sunlit
N/A
Visualization observer readout
Local Sidereal Time
17:14:29
Azimuth
Unknown
Elevation
Unknown
Doppler factor
Unknown
Orbital elements
Apogee altitude
168.512 km
Perigee altitude
155.231 km
Semi-major axis
6,540.009 km
Eccentricity
0.00102
Inclination
53.0279°
RAAN
344.5949°
Arg. of periapsis
257.2635°
True anomaly
241.65456°
Mean anomaly
241.757°
Eccentric anomaly
241.70577°
Mean motion
4.1037 °/min
Orbital period
87.73 mins
BSTAR
0.00070862
Loading maneuver chart data...
Computing Atmospheric mass density...
Loading historical data...
Loading historical data...
Loading historical data...
Loading historical data...
Loading historical data...
Loading historical data...
Loading historical data...

Documentation

Showing up to 5 results
|